Wetterdaten: Sonntag, 31.03.2019
Datum Zeit Temp. I. Temp. A. Boden 5 cm Feuchte A. Sonne Luftdruck Regen Wind Sonnenschein Zeit Regen
31.03.2019 00:01 21,7 C 4,1 C 5,0 C 80 % 1 % 1022 hPa 0,0 l/m 0,0 km/h (0 Bft) 0 min 0 min
31.03.2019 00:04 21,6 C 4,1 C 5,1 C 80 % 1 % 1022 hPa 0,0 l/m 0,0 km/h (0 Bft) 0 min 0 min
31.03.2019 00:07 21,7 C 4,1 C 5,1 C 80 % 1 % 1022 hPa 0,0 l/m 0,0 km/h (0 Bft) 0 min 0 min
31.03.2019 00:10 21,6 C 4,1 C 5,0 C 80 % 1 % 1022 hPa 0,0 l/m 0,0 km/h (0 Bft) 0 min 0 min
31.03.2019 00:13 21,6 C 4,1 C 4,9 C 80 % 1 % 1022 hPa 0,0 l/m 0,0 km/h (0 Bft) 0 min 0 min
31.03.2019 00:16 21,6 C 3,9 C 5,0 C 80 % 1 % 1022 hPa 0,0 l/m 0,0 km/h (0 Bft) 0 min 0 min
31.03.2019 00:19 21,6 C 3,9 C 5,0 C 80 % 1 % 1022 hPa 0,0 l/m 0,0 km/h (0 Bft) 0 min 0 min
31.03.2019 00:22 21,6 C 3,8 C 4,6 C 80 % 1 % 1022 hPa 0,0 l/m 0,0 km/h (0 Bft) 0 min 0 min
31.03.2019 00:25 21,6 C 3,7 C 4,5 C 80 % 1 % 1022 hPa 0,0 l/m 0,0 km/h (0 Bft) 0 min 0 min
31.03.2019 00:28 21,6 C 3,6 C 4,7 C 80 % 1 % 1022 hPa 0,0 l/m 0,0 km/h (0 Bft) 0 min 0 min
31.03.2019 00:31 21,6 C 3,6 C 4,8 C 80 % 1 % 1022 hPa 0,0 l/m 0,0 km/h (0 Bft) 0 min 0 min
31.03.2019 00:34 21,6 C 3,5 C 4,2 C 80 % 1 % 1022 hPa 0,0 l/m 0,0 km/h (0 Bft) 0 min 0 min
31.03.2019 00:37 21,6 C 3,5 C 4,6 C 81 % 1 % 1023 hPa 0,0 l/m 0,0 km/h (0 Bft) 0 min 0 min
31.03.2019 00:40 21,6 C 3,5 C 4,6 C 80 % 1 % 1023 hPa 0,0 l/m 0,0 km/h (0 Bft) 0 min 0 min
31.03.2019 00:43 21,6 C 3,4 C 4,7 C 80 % 1 % 1023 hPa 0,0 l/m 0,0 km/h (0 Bft) 0 min 0 min
31.03.2019 00:46 21,7 C 3,4 C 4,5 C 80 % 1 % 1023 hPa 0,0 l/m 0,0 km/h (0 Bft) 0 min 0 min
31.03.2019 00:55 21,6 C 3,4 C 4,3 C 81 % 1 % 1022 hPa 0,0 l/m 0,0 km/h (0 Bft) 0 min 0 min
31.03.2019 00:58 21,6 C 3,4 C 4,1 C 82 % 1 % 1022 hPa 0,0 l/m 0,0 km/h (0 Bft) 0 min 0 min
31.03.2019 01:01 21,6 C 3,4 C 3,9 C 82 % 1 % 1022 hPa 0,0 l/m 0,0 km/h (0 Bft) 0 min 0 min
31.03.2019 01:04 21,6 C 3,3 C 3,9 C 82 % 1 % 1022 hPa 0,0 l/m 0,0 km/h (0 Bft) 0 min 0 min
31.03.2019 01:07 21,6 C 3,1 C 3,9 C 85 % 1 % 1023 hPa 0,0 l/m 0,0 km/h (0 Bft) 0 min 0 min
31.03.2019 01:10 21,6 C 3,1 C 4,1 C 85 % 1 % 1023 hPa 0,0 l/m 0,0 km/h (0 Bft) 0 min 0 min
31.03.2019 01:13 21,6 C 3,1 C 3,9 C 85 % 1 % 1023 hPa 0,0 l/m 0,0 km/h (0 Bft) 0 min 0 min
31.03.2019 01:16 21,6 C 3,1 C 3,9 C 85 % 1 % 1023 hPa 0,0 l/m 0,0 km/h (0 Bft) 0 min 0 min
31.03.2019 01:19 21,6 C 3,1 C 3,9 C 85 % 1 % 1023 hPa 0,0 l/m 0,0 km/h (0 Bft) 0 min 0 min
31.03.2019 01:22 21,6 C 3,1 C 4,1 C 84 % 1 % 1023 hPa 0,0 l/m 0,0 km/h (0 Bft) 0 min 0 min
31.03.2019 01:25 21,6 C 3,0 C 4,3 C 84 % 1 % 1023 hPa 0,0 l/m 0,0 km/h (0 Bft) 0 min 0 min
31.03.2019 01:28 21,6 C 3,1 C 4,3 C 84 % 1 % 1023 hPa 0,0 l/m 0,0 km/h (0 Bft) 0 min 0 min
31.03.2019 01:31 21,6 C 3,0 C 4,2 C 84 % 1 % 1023 hPa 0,0 l/m 0,0 km/h (0 Bft) 0 min 0 min
31.03.2019 01:34 21,6 C 3,0 C 4,4 C 84 % 1 % 1023 hPa 0,0 l/m 0,0 km/h (0 Bft) 0 min 0 min
31.03.2019 01:37 21,6 C 3,0 C 4,2 C 84 % 1 % 1023 hPa 0,0 l/m 0,0 km/h (0 Bft) 0 min 0 min
31.03.2019 01:40 21,6 C 3,0 C 3,9 C 84 % 1 % 1023 hPa 0,0 l/m 0,0 km/h (0 Bft) 0 min 0 min
31.03.2019 01:43 21,6 C 3,0 C 4,0 C 84 % 1 % 1023 hPa 0,0 l/m 0,0 km/h (0 Bft) 0 min 0 min
31.03.2019 01:46 21,6 C 2,9 C 4,2 C 83 % 1 % 1023 hPa 0,0 l/m 0,0 km/h (0 Bft) 0 min 0 min
31.03.2019 01:49 21,6 C 2,8 C 4,2 C 83 % 1 % 1023 hPa 0,0 l/m 0,0 km/h (0 Bft) 0 min 0 min
31.03.2019 01:52 21,6 C 2,7 C 4,1 C 83 % 1 % 1023 hPa 0,0 l/m 0,0 km/h (0 Bft) 0 min 0 min
31.03.2019 01:55 21,6 C 2,7 C 4,1 C 83 % 1 % 1023 hPa 0,0 l/m 0,0 km/h (0 Bft) 0 min 0 min
31.03.2019 01:58 21,6 C 2,7 C 4,0 C 83 % 1 % 1023 hPa 0,0 l/m 0,0 km/h (0 Bft) 0 min 0 min
31.03.2019 03:01 21,6 C 2,6 C 4,1 C 83 % 1 % 1023 hPa 0,0 l/m 0,0 km/h (0 Bft) 0 min 0 min
31.03.2019 03:04 21,6 C 2,6 C 3,4 C 83 % 1 % 1023 hPa 0,0 l/m 0,0 km/h (0 Bft) 0 min 0 min
31.03.2019 03:07 21,6 C 2,6 C 3,9 C 84 % 1 % 1023 hPa 0,0 l/m 0,0 km/h (0 Bft) 0 min 0 min
31.03.2019 03:10 21,6 C 2,6 C 3,7 C 84 % 1 % 1023 hPa 0,0 l/m 0,0 km/h (0 Bft) 0 min 0 min
31.03.2019 03:13 21,7 C 2,5 C 3,5 C 83 % 1 % 1023 hPa 0,0 l/m 0,0 km/h (0 Bft) 0 min 0 min
31.03.2019 03:16 21,7 C 2,4 C 3,3 C 83 % 1 % 1023 hPa 0,0 l/m 0,0 km/h (0 Bft) 0 min 0 min
31.03.2019 03:19 21,7 C 2,3 C 3,6 C 83 % 1 % 1023 hPa 0,0 l/m 0,0 km/h (0 Bft) 0 min 0 min
31.03.2019 03:22 21,7 C 2,3 C 3,6 C 83 % 1 % 1023 hPa 0,0 l/m 0,0 km/h (0 Bft) 0 min 0 min
31.03.2019 03:25 21,7 C 2,3 C 3,4 C 83 % 1 % 1022 hPa 0,0 l/m 0,0 km/h (0 Bft) 0 min 0 min
31.03.2019 03:28 21,7 C 2,3 C 3,5 C 83 % 1 % 1023 hPa 0,0 l/m 0,0 km/h (0 Bft) 0 min 0 min
31.03.2019 03:31 21,7 C 2,3 C 3,4 C 84 % 1 % 1022 hPa 0,0 l/m 0,0 km/h (0 Bft) 0 min 0 min
31.03.2019 03:34 21,7 C 2,2 C 3,5 C 84 % 1 % 1023 hPa 0,0 l/m 0,0 km/h (0 Bft) 0 min 0 min
31.03.2019 03:37 21,6 C 2,1 C 3,6 C 84 % 1 % 1023 hPa 0,0 l/m 0,0 km/h (0 Bft) 0 min 0 min
31.03.2019 03:40 21,6 C 2,1 C 3,4 C 84 % 1 % 1023 hPa 0,0 l/m 0,0 km/h (0 Bft) 0 min 0 min
31.03.2019 03:43 21,7 C 2,1 C 3,5 C 84 % 1 % 1023 hPa 0,0 l/m 0,0 km/h (0 Bft) 0 min 0 min
31.03.2019 03:46 21,6 C 2,1 C 3,5 C 84 % 2 % 1023 hPa 0,0 l/m 0,0 km/h (0 Bft) 0 min 0 min
31.03.2019 03:49 21,6 C 2,1 C 3,5 C 84 % 1 % 1023 hPa 0,0 l/m 0,0 km/h (0 Bft) 0 min 0 min
31.03.2019 03:52 21,6 C 2,0 C 3,3 C 84 % 1 % 1023 hPa 0,0 l/m 0,0 km/h (0 Bft) 0 min 0 min
31.03.2019 03:55 21,6 C 2,0 C 3,3 C 84 % 1 % 1023 hPa 0,0 l/m 0,0 km/h (0 Bft) 0 min 0 min
31.03.2019 03:58 21,6 C 2,0 C 3,3 C 84 % 2 % 1023 hPa 0,0 l/m 0,0 km/h (0 Bft) 0 min 0 min
31.03.2019 04:01 21,6 C 1,9 C 3,4 C 84 % 2 % 1023 hPa 0,0 l/m 0,0 km/h (0 Bft) 0 min 0 min
31.03.2019 04:04 21,6 C 1,9 C 3,0 C 84 % 1 % 1022 hPa 0,0 l/m 0,0 km/h (0 Bft) 0 min 0 min
31.03.2019 04:07 21,6 C 1,8 C 3,2 C 84 % 1 % 1022 hPa 0,0 l/m 0,0 km/h (0 Bft) 0 min 0 min
31.03.2019 04:10 21,6 C 1,8 C 3,0 C 84 % 1 % 1022 hPa 0,0 l/m 0,0 km/h (0 Bft) 0 min 0 min
31.03.2019 04:13 21,6 C 1,7 C 3,2 C 84 % 1 % 1022 hPa 0,0 l/m 0,0 km/h (0 Bft) 0 min 0 min
31.03.2019 04:16 21,6 C 1,6 C 3,1 C 84 % 1 % 1022 hPa 0,0 l/m 0,0 km/h (0 Bft) 0 min 0 min
31.03.2019 04:19 21,6 C 1,6 C 3,1 C 84 % 1 % 1022 hPa 0,0 l/m 0,0 km/h (0 Bft) 0 min 0 min
31.03.2019 04:22 21,6 C 1,5 C 3,1 C 84 % 2 % 1022 hPa 0,0 l/m 0,0 km/h (0 Bft) 0 min 0 min
31.03.2019 04:25 21,6 C 1,5 C 3,1 C 84 % 2 % 1022 hPa 0,0 l/m 0,0 km/h (0 Bft) 0 min 0 min
31.03.2019 04:28 21,6 C 1,5 C 2,9 C 84 % 2 % 1022 hPa 0,0 l/m 0,0 km/h (0 Bft) 0 min 0 min
31.03.2019 04:31 21,6 C 1,4 C 2,7 C 84 % 2 % 1022 hPa 0,0 l/m 0,0 km/h (0 Bft) 0 min 0 min
31.03.2019 04:34 21,6 C 1,3 C 2,9 C 84 % 2 % 1022 hPa 0,0 l/m 0,0 km/h (0 Bft) 0 min 0 min
31.03.2019 04:37 21,6 C 1,3 C 2,6 C 84 % 2 % 1022 hPa 0,0 l/m 0,0 km/h (0 Bft) 0 min 0 min
31.03.2019 04:40 21,6 C 1,3 C 2,6 C 85 % 2 % 1022 hPa 0,0 l/m 0,0 km/h (0 Bft) 0 min 0 min
31.03.2019 04:43 21,6 C 1,2 C 3,0 C 85 % 2 % 1022 hPa 0,0 l/m 0,0 km/h (0 Bft) 0 min 0 min
31.03.2019 04:46 21,6 C 1,3 C 2,9 C 84 % 2 % 1022 hPa 0,0 l/m 0,0 km/h (0 Bft) 0 min 0 min
31.03.2019 04:49 21,6 C 1,3 C 2,7 C 84 % 2 % 1022 hPa 0,0 l/m 0,0 km/h (0 Bft) 0 min 0 min
31.03.2019 04:52 21,6 C 1,2 C 2,4 C 85 % 2 % 1022 hPa 0,0 l/m 0,0 km/h (0 Bft) 0 min 0 min
31.03.2019 04:55 21,6 C 1,2 C 2,9 C 85 % 2 % 1022 hPa 0,0 l/m 0,0 km/h (0 Bft) 0 min 0 min
31.03.2019 04:58 21,6 C 1,2 C 2,6 C 85 % 2 % 1022 hPa 0,0 l/m 0,0 km/h (0 Bft) 0 min 0 min
31.03.2019 05:01 21,6 C 1,2 C 2,6 C 85 % 2 % 1022 hPa 0,0 l/m 0,0 km/h (0 Bft) 0 min 0 min
31.03.2019 05:04 21,6 C 1,2 C 2,5 C 85 % 2 % 1022 hPa 0,0 l/m 0,0 km/h (0 Bft) 0 min 0 min
31.03.2019 05:07 21,6 C 1,2 C 2,7 C 85 % 2 % 1022 hPa 0,0 l/m 0,0 km/h (0 Bft) 0 min 0 min
31.03.2019 05:10 21,6 C 1,2 C 2,6 C 85 % 2 % 1022 hPa 0,0 l/m 0,0 km/h (0 Bft) 0 min 0 min
31.03.2019 05:13 21,6 C 1,2 C 2,6 C 85 % 2 % 1022 hPa 0,0 l/m 0,0 km/h (0 Bft) 0 min 0 min
31.03.2019 05:16 21,6 C 1,2 C 2,5 C 85 % 2 % 1022 hPa 0,0 l/m 0,0 km/h (0 Bft) 0 min 0 min
31.03.2019 05:19 21,6 C 1,2 C 2,3 C 85 % 2 % 1022 hPa 0,0 l/m 0,0 km/h (0 Bft) 0 min 0 min
31.03.2019 05:22 21,6 C 1,2 C 2,6 C 85 % 2 % 1022 hPa 0,0 l/m 0,0 km/h (0 Bft) 0 min 0 min
31.03.2019 05:25 21,6 C 1,2 C 2,7 C 85 % 2 % 1022 hPa 0,0 l/m 0,0 km/h (0 Bft) 0 min 0 min
31.03.2019 05:28 21,6 C 1,2 C 2,7 C 85 % 2 % 1022 hPa 0,0 l/m 0,0 km/h (0 Bft) 0 min 0 min
31.03.2019 05:31 21,6 C 1,1 C 2,6 C 85 % 2 % 1022 hPa 0,0 l/m 0,0 km/h (0 Bft) 0 min 0 min
31.03.2019 05:34 21,6 C 1,1 C 2,6 C 85 % 2 % 1022 hPa 0,0 l/m 0,0 km/h (0 Bft) 0 min 0 min
31.03.2019 05:37 21,6 C 1,1 C 2,3 C 85 % 2 % 1022 hPa 0,0 l/m 0,0 km/h (0 Bft) 0 min 0 min
31.03.2019 05:40 21,6 C 1,1 C 2,4 C 85 % 2 % 1022 hPa 0,0 l/m 0,0 km/h (0 Bft) 0 min 0 min
31.03.2019 05:43 21,6 C 1,0 C 2,4 C 85 % 2 % 1022 hPa 0,0 l/m 0,0 km/h (0 Bft) 0 min 0 min
31.03.2019 05:46 21,6 C 0,9 C 2,4 C 85 % 2 % 1022 hPa 0,0 l/m 0,0 km/h (0 Bft) 0 min 0 min
31.03.2019 05:49 21,6 C 0,9 C 2,3 C 85 % 2 % 1022 hPa 0,0 l/m 0,0 km/h (0 Bft) 0 min 0 min
31.03.2019 05:52 21,6 C 0,9 C 2,5 C 85 % 2 % 1022 hPa 0,0 l/m 0,0 km/h (0 Bft) 0 min 0 min
31.03.2019 05:55 21,6 C 0,9 C 2,3 C 85 % 2 % 1022 hPa 0,0 l/m 0,0 km/h (0 Bft) 0 min 0 min
31.03.2019 05:58 21,6 C 0,9 C 2,1 C 85 % 2 % 1022 hPa 0,0 l/m 0,0 km/h (0 Bft) 0 min 0 min
31.03.2019 06:01 21,6 C 0,9 C 2,2 C 85 % 2 % 1022 hPa 0,0 l/m 0,0 km/h (0 Bft) 0 min 0 min
31.03.2019 06:04 21,6 C 0,7 C 2,2 C 85 % 2 % 1022 hPa 0,0 l/m 0,0 km/h (0 Bft) 0 min 0 min
31.03.2019 06:07 21,6 C 0,7 C 2,3 C 85 % 2 % 1022 hPa 0,0 l/m 0,0 km/h (0 Bft) 0 min 0 min
31.03.2019 06:10 21,6 C 0,7 C 2,1 C 85 % 2 % 1022 hPa 0,0 l/m 0,0 km/h (0 Bft) 0 min 0 min
31.03.2019 06:13 21,6 C 0,7 C 2,2 C 85 % 2 % 1022 hPa 0,0 l/m 0,0 km/h (0 Bft) 0 min 0 min
31.03.2019 06:16 21,6 C 0,6 C 2,1 C 85 % 2 % 1022 hPa 0,0 l/m 0,0 km/h (0 Bft) 0 min 0 min
31.03.2019 06:19 21,6 C 0,5 C 2,3 C 85 % 2 % 1022 hPa 0,0 l/m 0,0 km/h (0 Bft) 0 min 0 min
31.03.2019 06:22 21,6 C 0,5 C 2,3 C 86 % 2 % 1022 hPa 0,0 l/m 0,0 km/h (0 Bft) 0 min 0 min
31.03.2019 06:25 21,6 C 0,5 C 2,0 C 86 % 2 % 1022 hPa 0,0 l/m 0,0 km/h (0 Bft) 0 min 0 min
31.03.2019 06:28 21,6 C 0,5 C 2,1 C 86 % 2 % 1022 hPa 0,0 l/m 0,0 km/h (0 Bft) 0 min 0 min
31.03.2019 06:31 21,6 C 0,5 C 2,2 C 86 % 2 % 1022 hPa 0,0 l/m 0,0 km/h (0 Bft) 0 min 0 min
31.03.2019 06:34 21,6 C 0,5 C 2,1 C 86 % 2 % 1022 hPa 0,0 l/m 0,0 km/h (0 Bft) 0 min 0 min
31.03.2019 06:37 21,6 C 0,5 C 2,2 C 86 % 2 % 1022 hPa 0,0 l/m 0,0 km/h (0 Bft) 0 min 0 min
31.03.2019 06:40 21,6 C 0,5 C 2,3 C 86 % 2 % 1022 hPa 0,0 l/m 0,0 km/h (0 Bft) 0 min 0 min
31.03.2019 06:43 21,6 C 0,5 C 2,2 C 86 % 2 % 1022 hPa 0,0 l/m 0,0 km/h (0 Bft) 0 min 0 min
31.03.2019 06:46 21,6 C 0,4 C 2,0 C 86 % 3 % 1022 hPa 0,0 l/m 0,0 km/h (0 Bft) 0 min 0 min
31.03.2019 06:49 21,6 C 0,3 C 2,0 C 86 % 3 % 1022 hPa 0,0 l/m 0,0 km/h (0 Bft) 0 min 0 min
31.03.2019 06:52 21,6 C 0,4 C 1,9 C 86 % 4 % 1023 hPa 0,0 l/m 0,0 km/h (0 Bft) 0 min 0 min
31.03.2019 06:55 21,6 C 0,4 C 1,7 C 86 % 4 % 1023 hPa 0,0 l/m 0,0 km/h (0 Bft) 0 min 0 min
31.03.2019 06:58 21,6 C 0,4 C 1,8 C 86 % 4 % 1023 hPa 0,0 l/m 0,0 km/h (0 Bft) 3 min 0 min
31.03.2019 07:01 21,6 C 0,5 C 1,9 C 87 % 4 % 1023 hPa 0,0 l/m 0,0 km/h (0 Bft) 3 min 0 min
31.03.2019 07:04 21,6 C 0,5 C 1,9 C 87 % 5 % 1023 hPa 0,0 l/m 0,0 km/h (0 Bft) 3 min 0 min
31.03.2019 07:07 21,6 C 0,5 C 2,3 C 86 % 6 % 1023 hPa 0,0 l/m 0,0 km/h (0 Bft) 3 min 0 min
31.03.2019 07:10 21,6 C 0,6 C 2,3 C 86 % 7 % 1023 hPa 0,0 l/m 0,0 km/h (0 Bft) 0 min 0 min
31.03.2019 07:13 21,6 C 0,6 C 2,3 C 86 % 8 % 1023 hPa 0,0 l/m 0,0 km/h (0 Bft) 0 min 0 min
31.03.2019 07:16 21,6 C 0,6 C 2,2 C 86 % 8 % 1023 hPa 0,0 l/m 0,0 km/h (0 Bft) 0 min 0 min
31.03.2019 07:19 21,6 C 0,7 C 2,2 C 86 % 9 % 1023 hPa 0,0 l/m 0,0 km/h (0 Bft) 0 min 0 min
31.03.2019 07:22 21,6 C 0,7 C 2,4 C 86 % 10 % 1023 hPa 0,0 l/m 0,0 km/h (0 Bft) 0 min 0 min
31.03.2019 07:25 21,6 C 0,7 C 2,6 C 86 % 11 % 1023 hPa 0,0 l/m 0,0 km/h (0 Bft) 0 min 0 min
31.03.2019 07:28 21,6 C 0,8 C 2,6 C 86 % 12 % 1023 hPa 0,0 l/m 0,0 km/h (0 Bft) 0 min 0 min
31.03.2019 07:31 21,6 C 0,9 C 2,6 C 86 % 12 % 1023 hPa 0,0 l/m 0,0 km/h (0 Bft) 0 min 0 min
31.03.2019 07:34 21,6 C 0,9 C 2,6 C 86 % 12 % 1023 hPa 0,0 l/m 0,0 km/h (0 Bft) 0 min 0 min
31.03.2019 07:37 21,6 C 1,0 C 2,6 C 86 % 14 % 1023 hPa 0,0 l/m 0,0 km/h (0 Bft) 0 min 0 min
31.03.2019 07:40 21,6 C 1,0 C 2,8 C 86 % 15 % 1023 hPa 0,0 l/m 0,0 km/h (0 Bft) 0 min 0 min
31.03.2019 07:43 21,6 C 1,1 C 3,0 C 86 % 15 % 1023 hPa 0,0 l/m 0,0 km/h (0 Bft) 0 min 0 min
31.03.2019 07:46 21,6 C 1,2 C 3,0 C 86 % 16 % 1023 hPa 0,0 l/m 0,0 km/h (0 Bft) 0 min 0 min
31.03.2019 07:49 21,6 C 1,2 C 3,1 C 86 % 16 % 1023 hPa 0,0 l/m 0,0 km/h (0 Bft) 0 min 0 min
31.03.2019 07:52 21,6 C 1,4 C 3,2 C 86 % 17 % 1023 hPa 0,0 l/m 0,0 km/h (0 Bft) 0 min 0 min
31.03.2019 07:55 21,6 C 1,5 C 3,3 C 86 % 18 % 1023 hPa 0,0 l/m 0,0 km/h (0 Bft) 0 min 0 min
31.03.2019 07:58 21,6 C 1,6 C 3,4 C 86 % 19 % 1023 hPa 0,0 l/m 0,0 km/h (0 Bft) 0 min 0 min
31.03.2019 08:01 21,6 C 1,7 C 3,4 C 85 % 19 % 1023 hPa 0,0 l/m 0,0 km/h (0 Bft) 0 min 0 min
31.03.2019 08:04 21,6 C 1,8 C 3,5 C 85 % 20 % 1023 hPa 0,0 l/m 0,0 km/h (0 Bft) 0 min 0 min
31.03.2019 08:07 21,6 C 1,9 C 3,7 C 85 % 21 % 1023 hPa 0,0 l/m 0,0 km/h (0 Bft) 0 min 0 min
31.03.2019 08:10 21,6 C 1,9 C 3,7 C 85 % 22 % 1023 hPa 0,0 l/m 0,0 km/h (0 Bft) 0 min 0 min
31.03.2019 08:13 21,6 C 2,1 C 3,8 C 85 % 22 % 1023 hPa 0,0 l/m 0,0 km/h (0 Bft) 0 min 0 min
31.03.2019 08:16 21,6 C 2,1 C 3,7 C 85 % 23 % 1023 hPa 0,0 l/m 0,0 km/h (0 Bft) 0 min 0 min
31.03.2019 08:19 21,6 C 2,5 C 3,7 C 86 % 23 % 1023 hPa 0,0 l/m 1,2 km/h (1 Bft) 0 min 0 min
31.03.2019 08:22 21,6 C 2,6 C 3,7 C 86 % 22 % 1023 hPa 0,0 l/m 1,7 km/h (1 Bft) 0 min 0 min
31.03.2019 08:25 21,7 C 2,7 C 4,2 C 86 % 23 % 1023 hPa 0,0 l/m 0,1 km/h (0 Bft) 0 min 0 min
31.03.2019 08:28 21,6 C 2,8 C 4,3 C 86 % 23 % 1023 hPa 0,0 l/m 0,0 km/h (0 Bft) 0 min 0 min
31.03.2019 08:31 21,7 C 2,9 C 4,2 C 86 % 24 % 1023 hPa 0,0 l/m 1,0 km/h (0 Bft) 0 min 0 min
31.03.2019 08:34 21,7 C 3,1 C 4,8 C 86 % 25 % 1023 hPa 0,0 l/m 1,5 km/h (1 Bft) 0 min 0 min
31.03.2019 08:37 21,7 C 3,1 C 4,3 C 86 % 26 % 1023 hPa 0,0 l/m 0,3 km/h (0 Bft) 0 min 0 min
31.03.2019 08:40 21,7 C 3,2 C 4,3 C 86 % 27 % 1023 hPa 0,0 l/m 2,9 km/h (1 Bft) 0 min 0 min
31.03.2019 08:43 21,7 C 3,3 C 4,5 C 86 % 28 % 1023 hPa 0,0 l/m 0,0 km/h (0 Bft) 0 min 0 min
31.03.2019 08:46 21,7 C 3,4 C 4,6 C 87 % 28 % 1023 hPa 0,0 l/m 0,1 km/h (0 Bft) 0 min 0 min
31.03.2019 08:49 21,7 C 3,6 C 4,6 C 87 % 29 % 1023 hPa 0,0 l/m 0,0 km/h (0 Bft) 0 min 0 min
31.03.2019 08:52 21,7 C 3,6 C 4,6 C 87 % 29 % 1023 hPa 0,0 l/m 0,0 km/h (0 Bft) 0 min 0 min
31.03.2019 08:55 21,7 C 3,7 C 4,6 C 86 % 29 % 1023 hPa 0,0 l/m 0,0 km/h (0 Bft) 0 min 0 min
31.03.2019 08:58 21,7 C 3,9 C 5,1 C 86 % 27 % 1023 hPa 0,0 l/m 0,0 km/h (0 Bft) 0 min 0 min
31.03.2019 09:01 21,7 C 3,9 C 5,2 C 86 % 29 % 1023 hPa 0,0 l/m 0,0 km/h (0 Bft) 0 min 0 min
31.03.2019 09:04 21,7 C 4,1 C 5,3 C 86 % 31 % 1023 hPa 0,0 l/m 0,2 km/h (0 Bft) 0 min 0 min
31.03.2019 09:07 21,7 C 4,3 C 5,3 C 86 % 32 % 1023 hPa 0,0 l/m 2,4 km/h (1 Bft) 0 min 0 min
31.03.2019 09:10 21,7 C 4,5 C 5,5 C 86 % 33 % 1023 hPa 0,0 l/m 0,0 km/h (0 Bft) 0 min 0 min
31.03.2019 09:13 21,7 C 4,6 C 5,4 C 86 % 34 % 1023 hPa 0,0 l/m 0,9 km/h (0 Bft) 0 min 0 min
31.03.2019 09:16 21,7 C 4,7 C 5,4 C 85 % 34 % 1023 hPa 0,0 l/m 0,9 km/h (0 Bft) 0 min 0 min
31.03.2019 09:19 21,7 C 4,8 C 5,6 C 85 % 35 % 1023 hPa 0,0 l/m 0,3 km/h (0 Bft) 0 min 0 min
31.03.2019 09:22 21,7 C 4,9 C 5,6 C 85 % 36 % 1023 hPa 0,0 l/m 0,3 km/h (0 Bft) 0 min 0 min
31.03.2019 09:25 21,7 C 5,2 C 5,6 C 85 % 37 % 1023 hPa 0,0 l/m 0,1 km/h (0 Bft) 0 min 0 min
31.03.2019 09:28 21,7 C 5,2 C 5,8 C 85 % 38 % 1023 hPa 0,0 l/m 3,6 km/h (1 Bft) 0 min 0 min
31.03.2019 09:31 21,7 C 5,4 C 5,9 C 85 % 39 % 1023 hPa 0,0 l/m 1,9 km/h (1 Bft) 0 min 0 min
31.03.2019 09:34 21,7 C 5,4 C 5,9 C 85 % 40 % 1023 hPa 0,0 l/m 2,8 km/h (1 Bft) 0 min 0 min
31.03.2019 09:37 21,7 C 5,7 C 6,0 C 84 % 40 % 1023 hPa 0,0 l/m 0,3 km/h (0 Bft) 0 min 0 min
31.03.2019 09:40 21,7 C 5,8 C 6,1 C 84 % 42 % 1023 hPa 0,0 l/m 2,4 km/h (1 Bft) 0 min 0 min
31.03.2019 09:43 21,7 C 5,8 C 6,1 C 84 % 43 % 1023 hPa 0,0 l/m 0,3 km/h (0 Bft) 0 min 0 min
31.03.2019 09:46 21,7 C 6,1 C 6,3 C 83 % 45 % 1023 hPa 0,0 l/m 1,2 km/h (1 Bft) 0 min 0 min
31.03.2019 09:49 21,7 C 6,1 C 6,3 C 83 % 45 % 1023 hPa 0,0 l/m 1,2 km/h (1 Bft) 0 min 0 min
31.03.2019 09:52 21,7 C 6,5 C 6,5 C 82 % 47 % 1023 hPa 0,0 l/m 1,8 km/h (1 Bft) 0 min 0 min
31.03.2019 09:55 21,8 C 6,6 C 6,5 C 82 % 46 % 1023 hPa 0,0 l/m 0,4 km/h (0 Bft) 0 min 0 min
31.03.2019 09:58 21,7 C 6,7 C 6,8 C 82 % 44 % 1023 hPa 0,0 l/m 2,9 km/h (1 Bft) 0 min 0 min
31.03.2019 10:01 21,8 C 6,8 C 6,9 C 82 % 52 % 1023 hPa 0,0 l/m 2,2 km/h (1 Bft) 0 min 0 min
31.03.2019 10:04 21,8 C 6,8 C 7,0 C 82 % 54 % 1023 hPa 0,0 l/m 0,4 km/h (0 Bft) 3 min 0 min
31.03.2019 10:07 21,8 C 7,1 C 7,2 C 81 % 55 % 1023 hPa 0,0 l/m 3,8 km/h (1 Bft) 3 min 0 min
31.03.2019 10:10 21,8 C 7,4 C 6,8 C 80 % 57 % 1023 hPa 0,0 l/m 3,2 km/h (1 Bft) 3 min 0 min
31.03.2019 10:13 21,8 C 7,5 C 6,8 C 79 % 59 % 1023 hPa 0,0 l/m 0,2 km/h (0 Bft) 3 min 0 min
31.03.2019 10:16 21,8 C 7,7 C 6,9 C 79 % 61 % 1023 hPa 0,0 l/m 0,0 km/h (0 Bft) 3 min 0 min
31.03.2019 10:19 21,8 C 7,8 C 7,0 C 77 % 62 % 1023 hPa 0,0 l/m 0,0 km/h (0 Bft) 3 min 0 min
31.03.2019 10:22 21,8 C 8,0 C 7,3 C 78 % 62 % 1023 hPa 0,0 l/m 0,0 km/h (0 Bft) 3 min 0 min
31.03.2019 10:25 21,7 C 8,3 C 7,4 C 78 % 62 % 1023 hPa 0,0 l/m 3,3 km/h (1 Bft) 3 min 0 min
31.03.2019 10:28 21,8 C 8,6 C 7,3 C 78 % 63 % 1023 hPa 0,0 l/m 3,3 km/h (1 Bft) 3 min 0 min
31.03.2019 10:31 21,7 C 8,7 C 7,3 C 76 % 63 % 1023 hPa 0,0 l/m 0,1 km/h (0 Bft) 3 min 0 min
31.03.2019 10:34 21,7 C 8,8 C 7,4 C 75 % 64 % 1023 hPa 0,0 l/m 0,1 km/h (0 Bft) 3 min 0 min
31.03.2019 10:37 21,7 C 9,0 C 7,8 C 75 % 66 % 1023 hPa 0,0 l/m 4,5 km/h (1 Bft) 3 min 0 min
31.03.2019 10:40 21,7 C 9,0 C 8,3 C 75 % 66 % 1023 hPa 0,0 l/m 5,1 km/h (1 Bft) 3 min 0 min
31.03.2019 10:43 21,7 C 9,3 C 8,6 C 73 % 74 % 1023 hPa 0,0 l/m 0,7 km/h (0 Bft) 3 min 0 min
31.03.2019 10:46 21,7 C 9,5 C 8,1 C 73 % 76 % 1023 hPa 0,0 l/m 0,6 km/h (0 Bft) 3 min 0 min
31.03.2019 10:49 21,8 C 9,6 C 9,0 C 73 % 75 % 1023 hPa 0,0 l/m 3,2 km/h (1 Bft) 3 min 0 min
31.03.2019 10:52 21,7 C 9,8 C 8,9 C 72 % 74 % 1023 hPa 0,0 l/m 2,1 km/h (1 Bft) 3 min 0 min
31.03.2019 10:55 21,7 C 10,0 C 8,2 C 71 % 75 % 1023 hPa 0,0 l/m 3,3 km/h (1 Bft) 3 min 0 min
31.03.2019 10:58 21,5 C 10,4 C 8,3 C 70 % 76 % 1023 hPa 0,0 l/m 4,3 km/h (1 Bft) 3 min 0 min
31.03.2019 11:01 21,4 C 10,4 C 9,3 C 70 % 76 % 1023 hPa 0,0 l/m 3,9 km/h (1 Bft) 3 min 0 min
31.03.2019 11:04 21,3 C 10,5 C 9,3 C 70 % 77 % 1023 hPa 0,0 l/m 2,5 km/h (1 Bft) 3 min 0 min
31.03.2019 11:07 21,2 C 10,7 C 9,5 C 69 % 78 % 1023 hPa 0,0 l/m 3,7 km/h (1 Bft) 3 min 0 min
31.03.2019 11:10 21,2 C 10,8 C 9,5 C 70 % 78 % 1023 hPa 0,0 l/m 2,5 km/h (1 Bft) 3 min 0 min
31.03.2019 11:13 21,2 C 11,1 C 9,5 C 69 % 78 % 1023 hPa 0,0 l/m 2,5 km/h (1 Bft) 3 min 0 min
31.03.2019 11:16 21,3 C 11,2 C 9,5 C 69 % 79 % 1023 hPa 0,0 l/m 2,5 km/h (1 Bft) 3 min 0 min
31.03.2019 11:19 21,4 C 11,4 C 9,2 C 69 % 79 % 1023 hPa 0,0 l/m 2,5 km/h (1 Bft) 3 min 0 min
31.03.2019 11:22 21,4 C 11,4 C 10,0 C 69 % 79 % 1023 hPa 0,0 l/m 0,7 km/h (0 Bft) 3 min 0 min
31.03.2019 11:25 21,4 C 11,8 C 9,0 C 67 % 79 % 1023 hPa 0,0 l/m 5,1 km/h (1 Bft) 3 min 0 min
31.03.2019 11:28 21,6 C 12,0 C 9,0 C 67 % 78 % 1023 hPa 0,0 l/m 5,6 km/h (1 Bft) 3 min 0 min
31.03.2019 11:31 21,6 C 12,0 C 9,0 C 67 % 80 % 1023 hPa 0,0 l/m 3,7 km/h (1 Bft) 3 min 0 min
31.03.2019 11:34 21,6 C 12,5 C 10,0 C 66 % 80 % 1023 hPa 0,0 l/m 3,5 km/h (1 Bft) 3 min 0 min
31.03.2019 11:37 21,6 C 12,7 C 9,2 C 65 % 80 % 1023 hPa 0,0 l/m 2,2 km/h (1 Bft) 3 min 0 min
31.03.2019 11:40 21,7 C 12,8 C 9,0 C 65 % 80 % 1023 hPa 0,0 l/m 5,3 km/h (1 Bft) 3 min 0 min
31.03.2019 11:43 21,7 C 12,9 C 9,2 C 64 % 80 % 1023 hPa 0,0 l/m 3,2 km/h (1 Bft) 3 min 0 min
31.03.2019 11:46 21,7 C 13,1 C 9,2 C 64 % 80 % 1022 hPa 0,0 l/m 5,2 km/h (1 Bft) 3 min 0 min
31.03.2019 11:49 21,7 C 13,2 C 9,0 C 63 % 80 % 1022 hPa 0,0 l/m 4,5 km/h (1 Bft) 3 min 0 min
31.03.2019 11:52 21,7 C 13,3 C 10,2 C 63 % 80 % 1022 hPa 0,0 l/m 3,5 km/h (1 Bft) 3 min 0 min
31.03.2019 11:55 21,7 C 13,4 C 10,5 C 63 % 80 % 1022 hPa 0,0 l/m 6,7 km/h (2 Bft) 3 min 0 min
31.03.2019 11:58 21,7 C 13,6 C 9,2 C 63 % 80 % 1022 hPa 0,0 l/m 6,7 km/h (2 Bft) 3 min 0 min
31.03.2019 12:01 21,8 C 13,7 C 10,6 C 62 % 80 % 1022 hPa 0,0 l/m 4,6 km/h (1 Bft) 3 min 0 min
31.03.2019 12:04 21,8 C 13,8 C 9,1 C 62 % 80 % 1022 hPa 0,0 l/m 5,0 km/h (1 Bft) 3 min 0 min
31.03.2019 12:07 21,8 C 13,8 C 8,9 C 62 % 80 % 1022 hPa 0,0 l/m 0,8 km/h (0 Bft) 3 min 0 min
31.03.2019 12:10 21,8 C 14,4 C 9,3 C 62 % 80 % 1022 hPa 0,0 l/m 0,4 km/h (0 Bft) 3 min 0 min
31.03.2019 12:13 21,8 C 14,5 C 9,0 C 59 % 80 % 1022 hPa 0,0 l/m 3,4 km/h (1 Bft) 3 min 0 min
31.03.2019 12:16 21,8 C 14,8 C 8,8 C 62 % 80 % 1022 hPa 0,0 l/m 4,6 km/h (1 Bft) 3 min 0 min
31.03.2019 12:19 21,8 C 15,0 C 8,6 C 60 % 79 % 1022 hPa 0,0 l/m 6,7 km/h (2 Bft) 3 min 0 min
31.03.2019 12:22 21,9 C 15,0 C 8,9 C 59 % 79 % 1022 hPa 0,0 l/m 5,8 km/h (2 Bft) 3 min 0 min
31.03.2019 12:25 21,8 C 15,2 C 8,7 C 58 % 79 % 1022 hPa 0,0 l/m 4,2 km/h (1 Bft) 3 min 0 min
31.03.2019 12:28 21,9 C 15,2 C 9,2 C 58 % 79 % 1022 hPa 0,0 l/m 4,3 km/h (1 Bft) 3 min 0 min
31.03.2019 12:31 21,9 C 15,6 C 9,3 C 60 % 79 % 1022 hPa 0,0 l/m 3,7 km/h (1 Bft) 3 min 0 min
31.03.2019 12:34 21,9 C 15,8 C 8,2 C 57 % 79 % 1022 hPa 0,0 l/m 5,0 km/h (1 Bft) 3 min 0 min
31.03.2019 12:37 21,9 C 15,7 C 9,2 C 56 % 79 % 1022 hPa 0,0 l/m 5,3 km/h (1 Bft) 3 min 0 min
31.03.2019 12:40 21,9 C 16,0 C 9,5 C 58 % 79 % 1022 hPa 0,0 l/m 6,8 km/h (2 Bft) 3 min 0 min
31.03.2019 12:43 21,9 C 16,4 C 9,3 C 57 % 79 % 1022 hPa 0,0 l/m 6,8 km/h (2 Bft) 3 min 0 min
31.03.2019 12:46 21,9 C 16,6 C 8,7 C 57 % 79 % 1022 hPa 0,0 l/m 7,0 km/h (2 Bft) 3 min 0 min
31.03.2019 12:49 21,9 C 16,8 C 9,0 C 56 % 79 % 1022 hPa 0,0 l/m 7,7 km/h (2 Bft) 3 min 0 min
31.03.2019 12:52 21,9 C 17,2 C 8,7 C 56 % 76 % 1022 hPa 0,0 l/m 5,9 km/h (2 Bft) 3 min 0 min
31.03.2019 12:55 21,9 C 17,2 C 9,0 C 52 % 76 % 1022 hPa 0,0 l/m 4,0 km/h (1 Bft) 3 min 0 min
31.03.2019 12:58 21,9 C 17,2 C 9,0 C 53 % 77 % 1022 hPa 0,0 l/m 6,7 km/h (2 Bft) 3 min 0 min
31.03.2019 13:01 21,9 C 17,3 C 10,6 C 52 % 78 % 1022 hPa 0,0 l/m 5,6 km/h (1 Bft) 3 min 0 min
31.03.2019 13:04 21,9 C 17,3 C 12,8 C 52 % 78 % 1022 hPa 0,0 l/m 2,6 km/h (1 Bft) 3 min 0 min
31.03.2019 13:07 21,9 C 17,6 C 14,6 C 49 % 79 % 1022 hPa 0,0 l/m 5,3 km/h (1 Bft) 3 min 0 min
31.03.2019 13:10 21,9 C 17,6 C 16,0 C 49 % 78 % 1022 hPa 0,0 l/m 5,3 km/h (1 Bft) 3 min 0 min
31.03.2019 13:13 21,9 C 17,8 C 16,1 C 50 % 78 % 1022 hPa 0,0 l/m 3,4 km/h (1 Bft) 3 min 0 min
31.03.2019 13:16 21,8 C 18,0 C 14,4 C 45 % 78 % 1022 hPa 0,0 l/m 3,4 km/h (1 Bft) 3 min 0 min
31.03.2019 13:19 21,8 C 18,3 C 14,4 C 45 % 78 % 1022 hPa 0,0 l/m 6,8 km/h (2 Bft) 3 min 0 min
31.03.2019 13:22 21,8 C 18,5 C 14,4 C 43 % 78 % 1021 hPa 0,0 l/m 6,8 km/h (2 Bft) 3 min 0 min
31.03.2019 13:25 21,8 C 18,5 C 15,4 C 40 % 78 % 1021 hPa 0,0 l/m 4,6 km/h (1 Bft) 3 min 0 min
31.03.2019 13:28 21,8 C 18,5 C 15,3 C 41 % 78 % 1021 hPa 0,0 l/m 1,6 km/h (1 Bft) 3 min 0 min
31.03.2019 13:31 21,8 C 18,3 C 15,7 C 39 % 78 % 1021 hPa 0,0 l/m 1,5 km/h (1 Bft) 3 min 0 min
31.03.2019 13:34 21,8 C 18,4 C 15,8 C 44 % 78 % 1021 hPa 0,0 l/m 1,0 km/h (0 Bft) 3 min 0 min
31.03.2019 13:37 21,8 C 18,8 C 15,4 C 40 % 78 % 1021 hPa 0,0 l/m 7,2 km/h (2 Bft) 3 min 0 min
31.03.2019 13:40 21,8 C 19,0 C 15,2 C 39 % 78 % 1021 hPa 0,0 l/m 8,2 km/h (2 Bft) 3 min 0 min
31.03.2019 13:43 21,8 C 19,0 C 15,6 C 39 % 78 % 1021 hPa 0,0 l/m 6,5 km/h (2 Bft) 3 min 0 min
31.03.2019 13:46 21,8 C 19,0 C 16,6 C 40 % 78 % 1021 hPa 0,0 l/m 8,4 km/h (2 Bft) 3 min 0 min
31.03.2019 13:49 21,8 C 19,2 C 16,0 C 38 % 78 % 1021 hPa 0,0 l/m 8,3 km/h (2 Bft) 3 min 0 min
31.03.2019 13:52 21,8 C 19,3 C 16,1 C 38 % 78 % 1021 hPa 0,0 l/m 10,1 km/h (2 Bft) 3 min 0 min
31.03.2019 13:55 21,8 C 19,6 C 16,4 C 39 % 79 % 1021 hPa 0,0 l/m 0,5 km/h (0 Bft) 3 min 0 min
31.03.2019 13:58 21,8 C 19,5 C 15,9 C 37 % 79 % 1021 hPa 0,0 l/m 3,6 km/h (1 Bft) 3 min 0 min
31.03.2019 14:01 21,8 C 19,5 C 15,9 C 38 % 79 % 1021 hPa 0,0 l/m 1,1 km/h (1 Bft) 3 min 0 min
31.03.2019 14:04 21,8 C 19,3 C 16,7 C 37 % 79 % 1021 hPa 0,0 l/m 2,0 km/h (1 Bft) 3 min 0 min
31.03.2019 14:07 21,8 C 19,3 C 17,1 C 37 % 79 % 1021 hPa 0,0 l/m 3,1 km/h (1 Bft) 3 min 0 min
31.03.2019 14:10 21,8 C 19,3 C 16,3 C 38 % 79 % 1021 hPa 0,0 l/m 5,1 km/h (1 Bft) 3 min 0 min
31.03.2019 14:13 21,8 C 19,6 C 16,6 C 38 % 78 % 1021 hPa 0,0 l/m 1,0 km/h (0 Bft) 3 min 0 min
31.03.2019 14:16 21,8 C 19,8 C 16,4 C 38 % 79 % 1021 hPa 0,0 l/m 7,0 km/h (2 Bft) 3 min 0 min
31.03.2019 14:19 21,8 C 20,0 C 16,4 C 37 % 79 % 1021 hPa 0,0 l/m 6,0 km/h (2 Bft) 3 min 0 min
31.03.2019 14:22 21,8 C 20,0 C 16,6 C 38 % 79 % 1021 hPa 0,0 l/m 5,0 km/h (1 Bft) 3 min 0 min
31.03.2019 14:25 21,8 C 20,3 C 17,4 C 37 % 79 % 1021 hPa 0,0 l/m 9,8 km/h (2 Bft) 3 min 0 min
31.03.2019 14:28 21,8 C 20,2 C 17,5 C 37 % 79 % 1021 hPa 0,0 l/m 7,2 km/h (2 Bft) 3 min 0 min
31.03.2019 14:31 21,8 C 20,2 C 16,9 C 37 % 79 % 1021 hPa 0,0 l/m 2,7 km/h (1 Bft) 3 min 0 min
31.03.2019 14:34 21,8 C 20,3 C 16,9 C 35 % 79 % 1021 hPa 0,0 l/m 4,8 km/h (1 Bft) 3 min 0 min
31.03.2019 14:37 21,8 C 20,2 C 17,9 C 36 % 79 % 1021 hPa 0,0 l/m 13,5 km/h (3 Bft) 3 min 0 min
31.03.2019 14:40 21,8 C 19,9 C 17,4 C 37 % 79 % 1021 hPa 0,0 l/m 11,5 km/h (2 Bft) 3 min 0 min
31.03.2019 14:43 21,8 C 20,0 C 17,4 C 36 % 79 % 1021 hPa 0,0 l/m 7,2 km/h (2 Bft) 3 min 0 min
31.03.2019 14:46 21,8 C 20,2 C 17,3 C 36 % 79 % 1021 hPa 0,0 l/m 8,2 km/h (2 Bft) 3 min 0 min
31.03.2019 14:49 21,8 C 20,3 C 16,6 C 35 % 79 % 1021 hPa 0,0 l/m 9,8 km/h (2 Bft) 3 min 0 min
31.03.2019 14:52 21,8 C 20,3 C 16,6 C 34 % 79 % 1021 hPa 0,0 l/m 4,5 km/h (1 Bft) 3 min 0 min
31.03.2019 14:55 21,8 C 20,3 C 16,8 C 34 % 79 % 1021 hPa 0,0 l/m 4,5 km/h (1 Bft) 3 min 0 min
31.03.2019 14:58 21,8 C 20,0 C 17,3 C 35 % 79 % 1021 hPa 0,0 l/m 6,0 km/h (2 Bft) 3 min 0 min
31.03.2019 15:01 21,8 C 19,6 C 17,3 C 34 % 79 % 1021 hPa 0,0 l/m 2,0 km/h (1 Bft) 3 min 0 min
31.03.2019 15:04 21,8 C 19,7 C 17,4 C 37 % 79 % 1021 hPa 0,0 l/m 8,3 km/h (2 Bft) 3 min 0 min
31.03.2019 15:07 21,9 C 20,0 C 16,7 C 36 % 79 % 1020 hPa 0,0 l/m 7,9 km/h (2 Bft) 3 min 0 min
31.03.2019 15:10 21,9 C 20,0 C 16,4 C 35 % 79 % 1020 hPa 0,0 l/m 2,3 km/h (1 Bft) 3 min 0 min
31.03.2019 15:13 21,9 C 20,0 C 16,6 C 36 % 79 % 1020 hPa 0,0 l/m 2,3 km/h (1 Bft) 3 min 0 min
31.03.2019 15:16 21,9 C 20,2 C 16,4 C 36 % 79 % 1020 hPa 0,0 l/m 7,8 km/h (2 Bft) 3 min 0 min
31.03.2019 15:19 22,0 C 20,3 C 16,4 C 35 % 79 % 1020 hPa 0,0 l/m 10,1 km/h (2 Bft) 3 min 0 min
31.03.2019 15:22 22,0 C 20,2 C 16,7 C 35 % 79 % 1020 hPa 0,0 l/m 4,4 km/h (1 Bft) 3 min 0 min
31.03.2019 15:25 22,0 C 20,1 C 17,5 C 35 % 79 % 1020 hPa 0,0 l/m 1,5 km/h (1 Bft) 3 min 0 min
31.03.2019 15:28 22,0 C 19,8 C 17,0 C 36 % 79 % 1020 hPa 0,0 l/m 5,7 km/h (1 Bft) 3 min 0 min
31.03.2019 15:31 22,0 C 19,9 C 17,0 C 37 % 79 % 1020 hPa 0,0 l/m 10,1 km/h (2 Bft) 3 min 0 min
31.03.2019 15:34 22,0 C 19,8 C 16,6 C 37 % 78 % 1020 hPa 0,0 l/m 10,4 km/h (2 Bft) 3 min 0 min
31.03.2019 15:37 22,0 C 20,0 C 17,2 C 37 % 79 % 1020 hPa 0,0 l/m 5,3 km/h (1 Bft) 3 min 0 min
31.03.2019 15:40 22,0 C 20,1 C 17,2 C 36 % 79 % 1020 hPa 0,0 l/m 6,0 km/h (2 Bft) 3 min 0 min
31.03.2019 15:43 22,0 C 20,1 C 17,8 C 36 % 78 % 1020 hPa 0,0 l/m 9,8 km/h (2 Bft) 3 min 0 min
31.03.2019 15:46 22,0 C 20,1 C 16,8 C 37 % 78 % 1020 hPa 0,0 l/m 5,9 km/h (2 Bft) 3 min 0 min
31.03.2019 15:49 22,1 C 20,2 C 17,2 C 36 % 78 % 1020 hPa 0,0 l/m 7,6 km/h (2 Bft) 3 min 0 min
31.03.2019 15:52 22,0 C 20,3 C 16,8 C 36 % 78 % 1020 hPa 0,0 l/m 7,6 km/h (2 Bft) 3 min 0 min
31.03.2019 15:55 22,0 C 20,4 C 16,5 C 36 % 78 % 1020 hPa 0,0 l/m 6,6 km/h (2 Bft) 3 min 0 min
31.03.2019 15:58 22,1 C 20,3 C 16,5 C 36 % 78 % 1020 hPa 0,0 l/m 4,1 km/h (1 Bft) 3 min 0 min
31.03.2019 16:01 22,1 C 20,4 C 16,5 C 37 % 78 % 1020 hPa 0,0 l/m 4,8 km/h (1 Bft) 3 min 0 min
31.03.2019 16:04 22,1 C 20,5 C 16,8 C 35 % 78 % 1020 hPa 0,0 l/m 0,8 km/h (0 Bft) 3 min 0 min
31.03.2019 16:07 22,1 C 20,4 C 16,7 C 35 % 78 % 1020 hPa 0,0 l/m 2,6 km/h (1 Bft) 3 min 0 min
31.03.2019 16:10 22,1 C 20,4 C 16,5 C 36 % 78 % 1020 hPa 0,0 l/m 0,9 km/h (0 Bft) 3 min 0 min
31.03.2019 16:13 22,1 C 20,4 C 16,5 C 36 % 78 % 1020 hPa 0,0 l/m 4,8 km/h (1 Bft) 3 min 0 min
31.03.2019 16:16 22,1 C 20,4 C 16,7 C 35 % 78 % 1020 hPa 0,0 l/m 2,8 km/h (1 Bft) 3 min 0 min
31.03.2019 16:19 22,1 C 20,3 C 16,9 C 36 % 77 % 1020 hPa 0,0 l/m 5,3 km/h (1 Bft) 3 min 0 min
31.03.2019 16:22 22,1 C 20,3 C 16,9 C 37 % 77 % 1020 hPa 0,0 l/m 0,5 km/h (0 Bft) 3 min 0 min
31.03.2019 16:25 22,1 C 20,2 C 16,9 C 37 % 77 % 1020 hPa 0,0 l/m 5,1 km/h (1 Bft) 3 min 0 min
31.03.2019 16:28 22,1 C 19,9 C 17,1 C 37 % 76 % 1019 hPa 0,0 l/m 4,9 km/h (1 Bft) 3 min 0 min
31.03.2019 16:31 22,1 C 20,0 C 16,3 C 37 % 76 % 1019 hPa 0,0 l/m 3,6 km/h (1 Bft) 3 min 0 min
31.03.2019 16:34 22,0 C 19,9 C 16,3 C 37 % 76 % 1019 hPa 0,0 l/m 4,8 km/h (1 Bft) 3 min 0 min
31.03.2019 16:37 22,1 C 19,9 C 16,6 C 37 % 76 % 1020 hPa 0,0 l/m 8,9 km/h (2 Bft) 3 min 0 min
31.03.2019 16:40 22,1 C 20,0 C 16,1 C 37 % 75 % 1020 hPa 0,0 l/m 7,8 km/h (2 Bft) 3 min 0 min
31.03.2019 16:43 22,1 C 20,0 C 16,5 C 36 % 75 % 1019 hPa 0,0 l/m 7,2 km/h (2 Bft) 3 min 0 min
31.03.2019 16:46 22,0 C 20,0 C 16,6 C 36 % 74 % 1019 hPa 0,0 l/m 4,5 km/h (1 Bft) 3 min 0 min
31.03.2019 16:49 22,0 C 19,4 C 16,6 C 37 % 74 % 1019 hPa 0,0 l/m 1,0 km/h (0 Bft) 3 min 0 min
31.03.2019 16:52 22,0 C 19,5 C 16,5 C 37 % 74 % 1019 hPa 0,0 l/m 0,3 km/h (0 Bft) 3 min 0 min
31.03.2019 16:55 22,0 C 19,5 C 15,9 C 37 % 73 % 1019 hPa 0,0 l/m 4,1 km/h (1 Bft) 3 min 0 min
31.03.2019 16:58 22,0 C 19,5 C 15,9 C 37 % 72 % 1019 hPa 0,0 l/m 4,7 km/h (1 Bft) 3 min 0 min
31.03.2019 17:01 22,0 C 19,7 C 15,9 C 37 % 71 % 1019 hPa 0,0 l/m 2,0 km/h (1 Bft) 3 min 0 min
31.03.2019 17:04 22,0 C 20,0 C 15,8 C 36 % 71 % 1019 hPa 0,0 l/m 1,5 km/h (1 Bft) 3 min 0 min
31.03.2019 17:07 22,0 C 19,9 C 16,5 C 37 % 70 % 1019 hPa 0,0 l/m 3,1 km/h (1 Bft) 3 min 0 min
31.03.2019 17:10 22,0 C 19,5 C 16,4 C 36 % 69 % 1019 hPa 0,0 l/m 3,1 km/h (1 Bft) 3 min 0 min
31.03.2019 17:13 22,0 C 19,2 C 16,5 C 36 % 69 % 1019 hPa 0,0 l/m 5,2 km/h (1 Bft) 3 min 0 min
31.03.2019 17:16 22,0 C 19,2 C 16,0 C 37 % 67 % 1019 hPa 0,0 l/m 0,1 km/h (0 Bft) 3 min 0 min
31.03.2019 17:19 22,1 C 19,1 C 16,4 C 37 % 67 % 1019 hPa 0,0 l/m 0,4 km/h (0 Bft) 3 min 0 min
31.03.2019 17:22 22,1 C 19,4 C 15,9 C 38 % 67 % 1019 hPa 0,0 l/m 1,8 km/h (1 Bft) 3 min 0 min
31.03.2019 17:25 22,0 C 19,7 C 15,4 C 37 % 65 % 1019 hPa 0,0 l/m 0,3 km/h (0 Bft) 3 min 0 min
31.03.2019 17:28 22,0 C 19,9 C 15,5 C 37 % 64 % 1019 hPa 0,0 l/m 3,2 km/h (1 Bft) 3 min 0 min
31.03.2019 17:31 22,0 C 19,8 C 15,4 C 36 % 63 % 1019 hPa 0,0 l/m 3,9 km/h (1 Bft) 3 min 0 min
31.03.2019 17:34 22,0 C 19,8 C 15,8 C 36 % 63 % 1019 hPa 0,0 l/m 2,4 km/h (1 Bft) 3 min 0 min
31.03.2019 17:37 22,0 C 19,8 C 15,8 C 37 % 62 % 1019 hPa 0,0 l/m 3,0 km/h (1 Bft) 3 min 0 min
31.03.2019 17:40 22,0 C 19,8 C 15,6 C 37 % 61 % 1019 hPa 0,0 l/m 0,4 km/h (0 Bft) 3 min 0 min
31.03.2019 17:43 22,0 C 19,8 C 15,9 C 37 % 60 % 1019 hPa 0,0 l/m 2,4 km/h (1 Bft) 3 min 0 min
31.03.2019 17:46 22,0 C 19,8 C 15,9 C 38 % 59 % 1019 hPa 0,0 l/m 3,8 km/h (1 Bft) 3 min 0 min
31.03.2019 17:49 22,0 C 19,8 C 15,2 C 36 % 58 % 1019 hPa 0,0 l/m 0,3 km/h (0 Bft) 3 min 0 min
31.03.2019 17:52 22,0 C 19,7 C 15,1 C 37 % 56 % 1019 hPa 0,0 l/m 0,7 km/h (0 Bft) 3 min 0 min
31.03.2019 17:55 22,0 C 19,6 C 14,9 C 37 % 53 % 1019 hPa 0,0 l/m 0,9 km/h (0 Bft) 3 min 0 min
31.03.2019 17:58 22,0 C 19,5 C 14,8 C 36 % 52 % 1019 hPa 0,0 l/m 1,2 km/h (1 Bft) 3 min 0 min
31.03.2019 18:01 22,0 C 19,3 C 14,5 C 37 % 50 % 1019 hPa 0,0 l/m 0,9 km/h (0 Bft) 3 min 0 min
31.03.2019 18:04 22,0 C 19,3 C 14,6 C 38 % 49 % 1019 hPa 0,0 l/m 3,8 km/h (1 Bft) 3 min 0 min
31.03.2019 18:07 22,0 C 19,0 C 14,7 C 38 % 48 % 1019 hPa 0,0 l/m 1,2 km/h (1 Bft) 3 min 0 min
31.03.2019 18:10 22,0 C 18,8 C 13,7 C 39 % 47 % 1019 hPa 0,0 l/m 2,4 km/h (1 Bft) 3 min 0 min
31.03.2019 18:13 22,0 C 18,8 C 13,6 C 38 % 46 % 1019 hPa 0,0 l/m 2,9 km/h (1 Bft) 3 min 0 min
31.03.2019 18:16 22,0 C 18,8 C 12,9 C 39 % 44 % 1019 hPa 0,0 l/m 0,7 km/h (0 Bft) 3 min 0 min
31.03.2019 18:19 22,0 C 18,8 C 12,9 C 39 % 43 % 1019 hPa 0,0 l/m 3,5 km/h (1 Bft) 3 min 0 min
31.03.2019 18:22 22,0 C 18,8 C 12,0 C 38 % 41 % 1019 hPa 0,0 l/m 0,1 km/h (0 Bft) 3 min 0 min
31.03.2019 18:25 22,0 C 18,7 C 12,0 C 39 % 39 % 1019 hPa 0,0 l/m 0,0 km/h (0 Bft) 3 min 0 min
31.03.2019 18:28 22,0 C 18,6 C 11,6 C 38 % 38 % 1019 hPa 0,0 l/m 0,0 km/h (0 Bft) 3 min 0 min
31.03.2019 18:31 22,0 C 18,6 C 11,8 C 38 % 36 % 1019 hPa 0,0 l/m 0,0 km/h (0 Bft) 3 min 0 min
31.03.2019 18:34 22,0 C 18,4 C 11,3 C 39 % 34 % 1019 hPa 0,0 l/m 0,0 km/h (0 Bft) 3 min 0 min
31.03.2019 18:37 22,0 C 18,4 C 11,1 C 39 % 32 % 1019 hPa 0,0 l/m 0,0 km/h (0 Bft) 3 min 0 min
31.03.2019 18:40 22,0 C 18,3 C 10,9 C 40 % 27 % 1019 hPa 0,0 l/m 0,0 km/h (0 Bft) 3 min 0 min
31.03.2019 18:43 22,0 C 18,1 C 10,5 C 40 % 27 % 1019 hPa 0,0 l/m 0,0 km/h (0 Bft) 3 min 0 min
31.03.2019 18:46 22,0 C 18,0 C 10,4 C 40 % 25 % 1019 hPa 0,0 l/m 0,2 km/h (0 Bft) 3 min 0 min
31.03.2019 18:49 22,0 C 18,0 C 10,2 C 40 % 23 % 1019 hPa 0,0 l/m 0,0 km/h (0 Bft) 3 min 0 min
31.03.2019 18:52 22,0 C 17,8 C 10,0 C 40 % 22 % 1019 hPa 0,0 l/m 0,0 km/h (0 Bft) 3 min 0 min
31.03.2019 18:55 22,0 C 17,6 C 10,0 C 41 % 18 % 1019 hPa 0,0 l/m 0,6 km/h (0 Bft) 3 min 0 min
31.03.2019 18:58 22,0 C 17,4 C 9,8 C 43 % 15 % 1019 hPa 0,0 l/m 0,0 km/h (0 Bft) 3 min 0 min
31.03.2019 19:01 22,0 C 17,2 C 9,6 C 43 % 10 % 1019 hPa 0,0 l/m 0,1 km/h (0 Bft) 3 min 0 min
31.03.2019 19:04 22,0 C 16,8 C 9,5 C 44 % 8 % 1019 hPa 0,0 l/m 0,4 km/h (0 Bft) 3 min 0 min
31.03.2019 19:07 22,0 C 16,7 C 9,3 C 45 % 8 % 1019 hPa 0,0 l/m 0,0 km/h (0 Bft) 3 min 0 min
31.03.2019 19:10 22,0 C 16,5 C 9,3 C 45 % 7 % 1019 hPa 0,0 l/m 0,0 km/h (0 Bft) 3 min 0 min
31.03.2019 19:13 22,0 C 16,3 C 9,3 C 46 % 6 % 1019 hPa 0,0 l/m 0,0 km/h (0 Bft) 3 min 0 min
31.03.2019 19:16 22,0 C 16,2 C 9,0 C 47 % 5 % 1019 hPa 0,0 l/m 0,0 km/h (0 Bft) 3 min 0 min
31.03.2019 19:19 22,0 C 16,0 C 9,0 C 48 % 4 % 1019 hPa 0,0 l/m 0,0 km/h (0 Bft) 3 min 0 min
31.03.2019 19:22 22,0 C 15,8 C 8,9 C 48 % 4 % 1019 hPa 0,0 l/m 0,0 km/h (0 Bft) 3 min 0 min
31.03.2019 19:25 22,0 C 15,6 C 8,6 C 48 % 3 % 1019 hPa 0,0 l/m 0,0 km/h (0 Bft) 0 min 0 min
31.03.2019 19:28 22,0 C 15,4 C 8,5 C 49 % 2 % 1019 hPa 0,0 l/m 0,0 km/h (0 Bft) 0 min 0 min
31.03.2019 19:31 22,0 C 15,1 C 8,5 C 49 % 2 % 1019 hPa 0,0 l/m 0,0 km/h (0 Bft) 0 min 0 min
31.03.2019 19:34 22,0 C 15,0 C 8,5 C 50 % 2 % 1019 hPa 0,0 l/m 0,0 km/h (0 Bft) 0 min 0 min
31.03.2019 19:37 22,0 C 15,0 C 8,4 C 49 % 1 % 1019 hPa 0,0 l/m 0,0 km/h (0 Bft) 0 min 0 min
31.03.2019 19:40 22,0 C 14,9 C 8,4 C 50 % 1 % 1019 hPa 0,0 l/m 0,0 km/h (0 Bft) 0 min 0 min
31.03.2019 19:43 22,0 C 14,7 C 8,4 C 50 % 0 % 1019 hPa 0,0 l/m 0,0 km/h (0 Bft) 0 min 0 min
31.03.2019 19:46 22,0 C 14,6 C 8,1 C 53 % 0 % 1019 hPa 0,0 l/m 0,0 km/h (0 Bft) 0 min 0 min
31.03.2019 19:49 22,0 C 14,3 C 8,3 C 53 % 0 % 1019 hPa 0,0 l/m 0,2 km/h (0 Bft) 0 min 0 min
31.03.2019 19:52 22,0 C 14,3 C 8,3 C 52 % 0 % 1019 hPa 0,0 l/m 0,9 km/h (0 Bft) 0 min 0 min
31.03.2019 19:55 22,0 C 14,2 C 8,2 C 52 % 0 % 1019 hPa 0,0 l/m 0,0 km/h (0 Bft) 0 min 0 min
31.03.2019 19:58 22,0 C 14,0 C 8,2 C 53 % 0 % 1019 hPa 0,0 l/m 0,0 km/h (0 Bft) 0 min 0 min
31.03.2019 20:01 22,0 C 13,9 C 8,1 C 55 % 0 % 1019 hPa 0,0 l/m 0,0 km/h (0 Bft) 0 min 0 min
31.03.2019 20:04 22,0 C 13,8 C 8,8 C 56 % 0 % 1019 hPa 0,0 l/m 0,0 km/h (0 Bft) 0 min 0 min
31.03.2019 20:07 21,9 C 13,8 C 8,6 C 56 % 0 % 1019 hPa 0,0 l/m 0,0 km/h (0 Bft) 0 min 0 min
31.03.2019 20:10 21,9 C 13,8 C 8,5 C 56 % 0 % 1019 hPa 0,0 l/m 0,1 km/h (0 Bft) 0 min 0 min
31.03.2019 20:13 22,0 C 13,8 C 8,5 C 56 % 0 % 1019 hPa 0,0 l/m 0,1 km/h (0 Bft) 0 min 0 min
31.03.2019 20:16 21,9 C 13,6 C 8,7 C 56 % 0 % 1020 hPa 0,0 l/m 0,4 km/h (0 Bft) 0 min 0 min
31.03.2019 20:19 21,9 C 13,6 C 8,6 C 56 % 0 % 1020 hPa 0,0 l/m 0,0 km/h (0 Bft) 0 min 0 min
31.03.2019 20:22 21,9 C 13,6 C 8,5 C 56 % 0 % 1020 hPa 0,0 l/m 0,1 km/h (0 Bft) 0 min 0 min
31.03.2019 20:25 21,9 C 13,3 C 8,6 C 56 % 0 % 1020 hPa 0,0 l/m 0,1 km/h (0 Bft) 0 min 0 min
31.03.2019 20:28 22,0 C 13,2 C 8,6 C 57 % 0 % 1020 hPa 0,0 l/m 0,0 km/h (0 Bft) 0 min 0 min
31.03.2019 20:31 21,9 C 13,0 C 8,9 C 57 % 0 % 1020 hPa 0,0 l/m 0,0 km/h (0 Bft) 0 min 0 min
31.03.2019 20:34 21,9 C 12,9 C 9,4 C 57 % 0 % 1020 hPa 0,0 l/m 0,0 km/h (0 Bft) 0 min 0 min
31.03.2019 20:37 21,9 C 12,8 C 9,2 C 58 % 0 % 1020 hPa 0,0 l/m 0,0 km/h (0 Bft) 0 min 0 min
31.03.2019 20:40 21,9 C 12,6 C 9,7 C 58 % 0 % 1020 hPa 0,0 l/m 0,0 km/h (0 Bft) 0 min 0 min
31.03.2019 20:43 21,9 C 12,6 C 10,1 C 59 % 0 % 1020 hPa 0,0 l/m 0,0 km/h (0 Bft) 0 min 0 min
31.03.2019 20:46 21,9 C 12,5 C 10,3 C 59 % 0 % 1020 hPa 0,0 l/m 0,0 km/h (0 Bft) 0 min 0 min
31.03.2019 20:49 21,9 C 12,4 C 10,5 C 60 % 0 % 1020 hPa 0,0 l/m 0,0 km/h (0 Bft) 0 min 0 min
31.03.2019 20:52 21,9 C 12,2 C 10,7 C 60 % 0 % 1020 hPa 0,0 l/m 0,0 km/h (0 Bft) 0 min 0 min
31.03.2019 20:55 21,9 C 12,1 C 10,8 C 60 % 0 % 1020 hPa 0,0 l/m 0,0 km/h (0 Bft) 0 min 0 min
31.03.2019 20:58 21,8 C 12,0 C 10,6 C 60 % 0 % 1020 hPa 0,0 l/m 0,0 km/h (0 Bft) 0 min 0 min
31.03.2019 21:01 21,9 C 12,0 C 11,0 C 63 % 0 % 1020 hPa 0,0 l/m 9,4 km/h (2 Bft) 0 min 0 min
31.03.2019 21:04 21,9 C 12,0 C 11,1 C 63 % 0 % 1020 hPa 0,0 l/m 1,3 km/h (1 Bft) 0 min 0 min
31.03.2019 21:07 21,8 C 11,8 C 11,3 C 62 % 0 % 1020 hPa 0,0 l/m 0,0 km/h (0 Bft) 0 min 0 min
31.03.2019 21:10 21,8 C 11,8 C 11,4 C 62 % 0 % 1020 hPa 0,0 l/m 0,0 km/h (0 Bft) 0 min 0 min
31.03.2019 21:13 21,8 C 11,8 C 11,2 C 63 % 0 % 1020 hPa 0,0 l/m 0,0 km/h (0 Bft) 0 min 0 min
31.03.2019 21:16 21,8 C 11,8 C 11,2 C 62 % 0 % 1020 hPa 0,0 l/m 0,1 km/h (0 Bft) 0 min 0 min
31.03.2019 21:19 21,8 C 11,8 C 11,4 C 62 % 0 % 1020 hPa 0,0 l/m 1,6 km/h (1 Bft) 0 min 0 min
31.03.2019 21:22 21,8 C 11,7 C 11,3 C 62 % 0 % 1020 hPa 0,0 l/m 1,8 km/h (1 Bft) 0 min 0 min
31.03.2019 21:25 21,8 C 11,6 C 11,2 C 62 % 0 % 1020 hPa 0,0 l/m 1,5 km/h (1 Bft) 0 min 0 min
31.03.2019 21:28 21,8 C 11,6 C 11,2 C 64 % 0 % 1020 hPa 0,0 l/m 0,1 km/h (0 Bft) 0 min 0 min
31.03.2019 21:31 21,8 C 11,6 C 11,2 C 63 % 0 % 1020 hPa 0,0 l/m 0,0 km/h (0 Bft) 0 min 0 min
31.03.2019 21:34 21,8 C 11,6 C 11,0 C 63 % 0 % 1020 hPa 0,0 l/m 0,0 km/h (0 Bft) 0 min 0 min
31.03.2019 21:37 21,8 C 11,6 C 11,0 C 63 % 0 % 1020 hPa 0,0 l/m 0,0 km/h (0 Bft) 0 min 0 min
31.03.2019 21:40 21,8 C 11,6 C 10,7 C 63 % 0 % 1020 hPa 0,0 l/m 0,0 km/h (0 Bft) 0 min 0 min
31.03.2019 21:43 21,8 C 11,6 C 10,7 C 63 % 0 % 1020 hPa 0,0 l/m 0,0 km/h (0 Bft) 0 min 0 min
31.03.2019 21:46 21,8 C 11,4 C 10,7 C 64 % 0 % 1020 hPa 0,0 l/m 0,0 km/h (0 Bft) 0 min 0 min
31.03.2019 21:49 21,8 C 11,4 C 10,7 C 64 % 0 % 1020 hPa 0,0 l/m 0,0 km/h (0 Bft) 0 min 0 min
31.03.2019 21:52 21,8 C 11,4 C 10,8 C 64 % 0 % 1020 hPa 0,0 l/m 0,0 km/h (0 Bft) 0 min 0 min
31.03.2019 21:55 21,8 C 11,5 C 11,3 C 65 % 0 % 1020 hPa 0,0 l/m 2,1 km/h (1 Bft) 0 min 0 min
31.03.2019 21:58 21,8 C 11,8 C 12,8 C 64 % 0 % 1020 hPa 0,0 l/m 5,7 km/h (1 Bft) 0 min 0 min
31.03.2019 22:01 21,8 C 12,2 C 13,0 C 60 % 0 % 1020 hPa 0,0 l/m 9,6 km/h (2 Bft) 0 min 0 min
31.03.2019 22:04 21,8 C 12,9 C 13,0 C 58 % 0 % 1020 hPa 0,0 l/m 9,6 km/h (2 Bft) 0 min 0 min
31.03.2019 22:07 21,8 C 12,9 C 12,4 C 56 % 0 % 1020 hPa 0,0 l/m 7,3 km/h (2 Bft) 0 min 0 min
31.03.2019 22:10 21,8 C 13,1 C 12,4 C 55 % 0 % 1020 hPa 0,0 l/m 4,6 km/h (1 Bft) 0 min 0 min
31.03.2019 22:13 21,8 C 13,2 C 12,6 C 54 % 0 % 1020 hPa 0,0 l/m 6,3 km/h (2 Bft) 0 min 0 min
31.03.2019 22:16 21,8 C 13,2 C 12,4 C 54 % 0 % 1020 hPa 0,0 l/m 2,5 km/h (1 Bft) 0 min 0 min
31.03.2019 22:19 21,8 C 13,0 C 11,4 C 54 % 0 % 1020 hPa 0,0 l/m 2,5 km/h (1 Bft) 0 min 0 min
31.03.2019 22:22 21,8 C 12,8 C 10,9 C 55 % 0 % 1020 hPa 0,0 l/m 0,0 km/h (0 Bft) 0 min 0 min
31.03.2019 22:25 21,8 C 12,7 C 11,1 C 55 % 0 % 1020 hPa 0,0 l/m 0,1 km/h (0 Bft) 0 min 0 min
31.03.2019 22:28 21,8 C 12,7 C 11,7 C 56 % 0 % 1020 hPa 0,0 l/m 0,0 km/h (0 Bft) 0 min 0 min
31.03.2019 22:31 21,8 C 12,6 C 11,6 C 56 % 0 % 1020 hPa 0,0 l/m 0,0 km/h (0 Bft) 0 min 0 min
31.03.2019 22:34 21,8 C 12,4 C 11,0 C 56 % 0 % 1020 hPa 0,0 l/m 0,0 km/h (0 Bft) 0 min 0 min
31.03.2019 22:37 21,8 C 12,3 C 11,1 C 56 % 0 % 1021 hPa 0,0 l/m 0,0 km/h (0 Bft) 0 min 0 min
31.03.2019 22:40 21,8 C 12,2 C 11,2 C 56 % 0 % 1021 hPa 0,0 l/m 0,0 km/h (0 Bft) 0 min 0 min
31.03.2019 22:43 21,8 C 12,1 C 11,4 C 56 % 0 % 1021 hPa 0,0 l/m 0,0 km/h (0 Bft) 0 min 0 min
31.03.2019 22:46 21,8 C 12,1 C 11,4 C 56 % 0 % 1021 hPa 0,0 l/m 0,0 km/h (0 Bft) 0 min 0 min
31.03.2019 22:49 21,8 C 12,0 C 10,9 C 56 % 0 % 1021 hPa 0,0 l/m 0,0 km/h (0 Bft) 0 min 0 min
31.03.2019 22:52 21,8 C 12,0 C 10,9 C 56 % 0 % 1021 hPa 0,0 l/m 0,0 km/h (0 Bft) 0 min 0 min
31.03.2019 22:55 21,8 C 11,9 C 11,0 C 57 % 0 % 1021 hPa 0,0 l/m 0,0 km/h (0 Bft) 0 min 0 min
31.03.2019 22:58 21,8 C 11,8 C 10,9 C 57 % 0 % 1021 hPa 0,0 l/m 0,0 km/h (0 Bft) 0 min 0 min
31.03.2019 23:01 21,8 C 11,7 C 10,4 C 57 % 0 % 1021 hPa 0,0 l/m 0,0 km/h (0 Bft) 0 min 0 min
31.03.2019 23:04 21,8 C 11,6 C 10,3 C 57 % 0 % 1021 hPa 0,0 l/m 0,0 km/h (0 Bft) 0 min 0 min
31.03.2019 23:07 21,8 C 11,4 C 10,5 C 57 % 0 % 1021 hPa 0,0 l/m 0,0 km/h (0 Bft) 0 min 0 min
31.03.2019 23:10 21,8 C 11,3 C 10,6 C 58 % 0 % 1021 hPa 0,0 l/m 0,0 km/h (0 Bft) 0 min 0 min
31.03.2019 23:13 21,8 C 11,3 C 10,2 C 58 % 0 % 1021 hPa 0,0 l/m 0,0 km/h (0 Bft) 0 min 0 min
31.03.2019 23:16 21,8 C 11,2 C 10,3 C 58 % 0 % 1021 hPa 0,0 l/m 0,0 km/h (0 Bft) 0 min 0 min
31.03.2019 23:19 21,8 C 11,1 C 10,2 C 58 % 0 % 1021 hPa 0,0 l/m 0,0 km/h (0 Bft) 0 min 0 min
31.03.2019 23:22 21,8 C 11,1 C 10,3 C 59 % 0 % 1021 hPa 0,0 l/m 0,0 km/h (0 Bft) 0 min 0 min
31.03.2019 23:25 21,8 C 11,1 C 10,4 C 59 % 0 % 1021 hPa 0,0 l/m 0,0 km/h (0 Bft) 0 min 0 min
31.03.2019 23:28 21,8 C 11,0 C 10,3 C 58 % 0 % 1021 hPa 0,0 l/m 4,6 km/h (1 Bft) 0 min 0 min
31.03.2019 23:31 21,8 C 11,0 C 10,4 C 59 % 0 % 1021 hPa 0,0 l/m 0,9 km/h (0 Bft) 0 min 0 min
31.03.2019 23:34 21,8 C 11,1 C 10,5 C 59 % 0 % 1021 hPa 0,0 l/m 0,4 km/h (0 Bft) 0 min 0 min
31.03.2019 23:37 21,8 C 11,0 C 10,0 C 59 % 0 % 1021 hPa 0,0 l/m 0,9 km/h (0 Bft) 0 min 0 min
31.03.2019 23:40 21,8 C 10,9 C 10,1 C 59 % 0 % 1021 hPa 0,0 l/m 0,0 km/h (0 Bft) 0 min 0 min
31.03.2019 23:43 21,8 C 10,9 C 10,1 C 59 % 0 % 1021 hPa 0,0 l/m 0,5 km/h (0 Bft) 0 min 0 min
31.03.2019 23:46 21,8 C 10,9 C 10,6 C 59 % 0 % 1021 hPa 0,0 l/m 0,3 km/h (0 Bft) 0 min 0 min
31.03.2019 23:49 21,7 C 10,9 C 10,1 C 59 % 0 % 1021 hPa 0,0 l/m 0,0 km/h (0 Bft) 0 min 0 min
31.03.2019 23:52 21,8 C 10,8 C 9,7 C 59 % 0 % 1021 hPa 0,0 l/m 0,0 km/h (0 Bft) 0 min 0 min
31.03.2019 23:55 21,8 C 10,8 C 10,2 C 60 % 0 % 1021 hPa 0,0 l/m 0,1 km/h (0 Bft) 0 min 0 min
31.03.2019 23:58 21,8 C 10,8 C 10,0 C 60 % 0 % 1021 hPa 0,0 l/m 0,4 km/h (0 Bft) 0 min 0 min
_ Min-Zeit 11:07 06:49 06:55 14:52 - 16:28 - 00:01 - -
Minimum _ 21,2 C 0,3 C 1,7 C 34 % - 1019 hPa - 0,0 km/h (0 Bft) - -
_ Max-Zeit 15:49 16:04 14:37 07:01 11:58 00:37 00:01 14:37 06:58 00:01
Maximum _ 22,1 C 20,5 C 17,9 C 87 % 80 % 1023 hPa 0,0 l/m 13,5 km/h
S-SO (3 Bft)
3 min 0 min
Durchschnitt _ 21,8 C 10,0 C 8,6 C 65 % #9:33 h 1022 hPa #0,0 l/m 1,7 km/h (1 Bft) #9:33 h #0 min.